KUIPER-00130

导读

KUIPER-00152是美国亚马逊柯伊柏(Kuiper)卫星互联网星座的一员,于2025年9月25日成功发射,编号65772,轨道倾角约93.6度。柯伊柏星座计划部署3236颗卫星,运行在近地轨道,通过多波束相控阵天线提供全球宽带互联网服务,KUIPER-00152的发射是该星座组网进程中的重要一步,助力项目推进全球覆盖目标。

基本信息
目录编号:
65772
目录名称:
KUIPER-00152
国际标识:
2025-217L
轨道中心:
EARTH
卫星名称:
KUIPER-00152
卫星全名:
KUIPER-00130
卫星状态:
在轨 (已飞行305 天)
发射日期:
2025-09-25 UTC
国别 :
美国 (US)
星等 :
--
轨道信息
数据来源 国际轨道数据
星历时间: 2026-07-27T08:15:33+0800
22小时前
查看轨道信息
半长轴: 7007.68km
偏心率: 0.0000795
轨道倾角: 51.900°
近地点辐角 85.347°
升交点赤经 134.524°
平近点角 274.758°
近地点: 628.985km
远地点: 630.101km
周期: 97.302分钟
每日圈数: 14.799309
详细信息
使用方式:
暂无
2D轨道图
3D轨道图
轨道高度分析图
轨道倾角分析图
轨道综合分析图
查看轨道综合分析图